ONEWEB-0066 (45424 NORAD) Tracking and Keplerian Element Data

This shows tracking and keplerian element data for the satellite.

Feedback or suggestion? Click here.




ElementValue
Catalog45424
NameONEWEB-0066
Epoch Orbit76
Epoch Day86.71271292
Epoch Year2020
RAAN137.1343
Inclination87.3983
Eccentricity0.0021917
Argument of Perigee277.1767
Mean Anonmoly82.6995
Mean Motion15.39290912
Decay Rate2.416E-05
L11 45424U 20020A 20086.71271292 .00002416 00000-0 60408-4 0 9995
L22 45424 87.3983 137.1343 0021917 277.1767 82.6995 15.39290912 761

Live tracking and technical data element details for ONEWEB-0066 (NORAD 45424). ONEWEB-0066 can be tracked NOW for your location showing map with azimuth and elevation plus other details from your city location.

Track the satellite on the map from your city or location and see movement details for azimuth, elevation, latitude, longitude, range, height, and movement on the map or in text.







IsCatalogInMostPopularTable: catalog: 45424, numindb: -1

Insert: records affected: 1


GetName: 45424 ONEWEB-0066

Hit Count: inserted at: Tue, 31 Mar 2020 14:06:39 GMT